Weather in Абадан

Iran     30˚22′01″N   40˚15′00″E
temp.,
°C
wind,
m/s
gust,
m/s
humid.,
%
clouds,
%
prec.,
mm/h
press.,
hPa
HPBL,
m
16 january, sat
sat1600:00+9˚se12580 0.0 101722
03:00+9˚se23570 0.0 101622
06:00+7˚se23620 0.0 101622
09:00+9˚se35540 0.0 1016206
12:00+15˚se67360 0.0 10141005
15:00+17˚s67310 0.0 10101551
18:00+13˚ene124031 0.0 101023
21:00+12˚nw343949 0.0 101134
17 january, sun
sun1700:00+11˚nw45390 0.0 101227
03:00+10˚nw711490 0.0 1012184
06:00+8˚nw58660 0.0 1015121
09:00+9˚wnw58540 0.0 1016326
12:00+14˚w564263 0.0 1015959
15:00+15˚wsw673344 0.0 10121475
18:00+13˚wsw343896 0.0 101329
21:00+12˚wsw443794 0.0 101444
18 january, mon
mon1800:00+11˚w4537100 0.0 101559
03:00+10˚wnw51247100 0.0 1016336
06:00+8˚w465433 0.0 101890
09:00+9˚w6105117 0.0 1020577
12:00+13˚w67420 0.0 10201148
15:00+14˚w67350 0.0 10181565
18:00+12˚wsw34430 0.0 101931
21:00+11˚s334517 0.0 102022
19 january, tue
tue1900:00+10˚s4446100 0.0 102037
03:00+8˚s3448100 0.0 101926
06:00+7˚s344777 0.0 101930
09:00+9˚ssw354371 0.0 1020189
12:00+15˚ssw68270 0.0 1017997
15:00+18˚sw69221 0.0 10141809
18:00+13˚wnw683133 0.0 1014127
21:00+11˚nw22390 0.0 101622
20 january, wed
wed2000:00+10˚nw58370 0.0 1016111
03:00+8˚nw58540 0.0 1017117
06:00+6˚w34640 0.0 101739
09:00+8˚w69630 0.0 1019496
12:00+11˚wnw785336 0.0 10181301
15:00+9˚wnw7106368 0.0 10171046
18:00+10˚w7124377 0.0 1019392
21:00+7˚wnw8146039 0.0 1022518